Time,TemperatureF,DewpointF,PressureIn,WindDirection,WindDirectionDegrees,WindSpeedMPH,WindSpeedGustMPH,Humidity,HourlyPrecipIn,Conditions,Clouds,dailyrainin,SoftwareType,DateUTC
2013-01-11 00:01:00,38.6,37.0,30.02,ESE,112,4.3,6.9,94,0.06,RA,,0.00,WeatherDisplay:10.37,2013-01-11 05:01:00,
2013-01-11 00:03:00,38.7,37.1,30.02,SE,130,4.3,6.9,94,0.06,RA,,0.00,WeatherDisplay:10.37,2013-01-11 05:03:00,
2013-01-11 00:08:00,38.8,37.2,30.02,SE,140,1.9,6.0,94,0.05,RA,,0.00,WeatherDisplay:10.37,2013-01-11 05:08:00,
2013-01-11 00:13:00,38.7,36.9,30.02,ESE,119,7.4,10.4,93,0.05,CLR,,0.00,WeatherDisplay:10.37,2013-01-11 05:13:00,
2013-01-11 00:18:00,38.8,36.9,30.02,SE,128,4.5,6.9,93,0.05,CLR,,0.00,WeatherDisplay:10.37,2013-01-11 05:18:00,
2013-01-11 00:23:00,38.8,36.9,30.01,SE,142,3.7,9.2,93,0.06,RA,,0.01,WeatherDisplay:10.37,2013-01-11 05:23:00,
2013-01-11 00:28:00,38.8,36.9,30.01,SE,142,5.3,6.9,93,0.06,RA,,0.01,WeatherDisplay:10.37,2013-01-11 05:28:00,
2013-01-11 00:33:00,38.8,36.9,30.01,SSE,150,3.1,5.8,93,0.06,CLR,,0.01,WeatherDisplay:10.37,2013-01-11 05:33:00,
2013-01-11 00:38:00,38.8,36.9,30.01,SE,141,4.0,9.2,93,0.05,CLR,,0.01,WeatherDisplay:10.37,2013-01-11 05:38:00,
2013-01-11 00:43:00,38.9,37.0,30.01,SE,142,2.5,5.8,93,0.05,RA,,0.02,WeatherDisplay:10.37,2013-01-11 05:43:00,
2013-01-11 00:48:00,39.0,37.1,30.01,SE,141,0.4,5.8,93,0.05,RA,,0.02,WeatherDisplay:10.37,2013-01-11 05:48:00,
2013-01-11 00:53:00,39.1,37.2,30.01,SE,143,2.6,3.5,93,0.04,RA,,0.03,WeatherDisplay:10.37,2013-01-11 05:53:00,
2013-01-11 00:58:00,39.2,37.3,30.01,SE,142,2.2,3.5,93,0.03,RA,,0.03,WeatherDisplay:10.37,2013-01-11 05:58:00,
2013-01-11 01:03:00,39.2,37.3,30.01,SE,145,2.3,4.6,93,0.03,,,0.03,WeatherDisplay:10.37,2013-01-11 06:03:00,
2013-01-11 01:08:00,39.4,37.5,30.00,SSE,149,4.0,9.2,93,0.03,CLR,,0.03,WeatherDisplay:10.37,2013-01-11 06:08:00,
2013-01-11 01:13:00,39.4,37.5,29.99,SSE,151,3.6,10.4,93,0.04,RA,,0.04,WeatherDisplay:10.37,2013-01-11 06:13:00,
2013-01-11 01:18:00,39.5,37.6,29.99,SE,135,1.2,3.5,93,0.04,RA,,0.04,WeatherDisplay:10.37,2013-01-11 06:18:00,
2013-01-11 01:23:00,39.5,37.6,29.98,ESE,119,4.3,9.2,93,0.03,,,0.04,WeatherDisplay:10.37,2013-01-11 06:23:00,
2013-01-11 01:28:00,39.5,37.6,29.98,ESE,111,3.3,9.2,93,0.03,CLR,,0.04,WeatherDisplay:10.37,2013-01-11 06:28:00,
2013-01-11 01:33:00,39.5,37.6,29.96,SE,126,2.7,10.4,93,0.03,CLR,,0.04,WeatherDisplay:10.37,2013-01-11 06:33:00,
2013-01-11 01:38:00,39.5,37.6,29.96,ESE,119,6.1,11.5,93,0.03,CLR,,0.04,WeatherDisplay:10.37,2013-01-11 06:38:00,
2013-01-11 01:43:00,39.5,37.6,29.96,SE,142,4.6,6.9,93,0.02,CLR,,0.04,WeatherDisplay:10.37,2013-01-11 06:43:00,
2013-01-11 01:48:00,39.5,37.6,29.95,ESE,111,5.0,9.2,93,0.02,CLR,,0.04,WeatherDisplay:10.37,2013-01-11 06:48:00,
2013-01-11 01:53:00,39.6,37.5,29.95,ESE,110,3.2,6.9,92,0.01,CLR,,0.04,WeatherDisplay:10.37,2013-01-11 06:53:00,
2013-01-11 01:58:00,39.7,37.8,29.95,SE,136,2.6,6.9,93,0.01,CLR,,0.04,WeatherDisplay:10.37,2013-01-11 06:58:00,
2013-01-11 02:03:00,39.8,37.7,29.94,SE,138,1.2,4.6,92,0.01,CLR,,0.04,WeatherDisplay:10.37,2013-01-11 07:03:00,
2013-01-11 02:08:00,39.8,37.7,29.94,SE,136,6.9,11.5,92,0.01,CLR,,0.04,WeatherDisplay:10.37,2013-01-11 07:08:00,
2013-01-11 02:13:00,39.9,37.8,29.93,ESE,116,3.1,5.8,92,0.00,CLR,,0.04,WeatherDisplay:10.37,2013-01-11 07:13:00,
2013-01-11 02:18:00,39.9,37.8,29.93,East,87,3.5,9.2,92,0.00,CLR,,0.04,WeatherDisplay:10.37,2013-01-11 07:18:00,
2013-01-11 02:23:00,40.1,38.0,29.92,ESE,109,2.1,5.0,92,0.00,CLR,,0.04,WeatherDisplay:10.37,2013-01-11 07:23:00,
2013-01-11 02:28:00,40.2,38.1,29.92,ESE,120,2.1,6.9,92,0.00,CLR,,0.04,WeatherDisplay:10.37,2013-01-11 07:28:00,
2013-01-11 02:33:00,40.3,38.2,29.92,ESE,115,3.2,8.1,92,0.00,CLR,,0.04,WeatherDisplay:10.37,2013-01-11 07:33:00,
2013-01-11 02:38:00,40.4,38.3,29.92,ESE,112,4.6,10.4,92,0.00,CLR,,0.04,WeatherDisplay:10.37,2013-01-11 07:38:00,
2013-01-11 02:43:00,40.6,38.5,29.91,SE,144,4.1,5.8,92,0.00,CLR,,0.04,WeatherDisplay:10.37,2013-01-11 07:43:00,
2013-01-11 02:48:00,40.6,38.5,29.91,SE,132,2.5,5.8,92,0.00,CLR,,0.04,WeatherDisplay:10.37,2013-01-11 07:48:00,
2013-01-11 02:53:00,40.6,38.5,29.91,SE,136,6.2,10.4,92,0.00,CLR,,0.04,WeatherDisplay:10.37,2013-01-11 07:53:00,
2013-01-11 02:58:00,40.9,38.8,29.91,ESE,113,3.3,6.9,92,0.00,CLR,,0.04,WeatherDisplay:10.37,2013-01-11 07:58:00,
2013-01-11 03:03:00,40.9,38.8,29.90,SE,132,1.5,2.3,92,0.00,CLR,,0.04,WeatherDisplay:10.37,2013-01-11 08:03:00,
2013-01-11 03:08:00,40.9,38.8,29.90,SE,140,5.4,10.4,92,0.00,CLR,,0.04,WeatherDisplay:10.37,2013-01-11 08:08:00,
2013-01-11 03:13:00,41.0,38.9,29.90,SSE,150,5.7,11.5,92,0.00,CLR,,0.04,WeatherDisplay:10.37,2013-01-11 08:13:00,
2013-01-11 03:18:00,41.1,39.0,29.90,SE,140,3.4,6.9,92,0.00,CLR,,0.04,WeatherDisplay:10.37,2013-01-11 08:18:00,
2013-01-11 03:23:00,41.3,39.2,29.89,ESE,123,4.5,11.5,92,0.00,CLR,,0.04,WeatherDisplay:10.37,2013-01-11 08:23:00,
2013-01-11 03:28:00,41.6,39.7,29.89,South,184,5.0,9.0,93,0.01,RA,,0.05,WeatherDisplay:10.37,2013-01-11 08:28:00,
2013-01-11 03:33:00,42.1,40.2,29.89,SSE,167,6.3,10.4,93,0.01,RA,,0.05,WeatherDisplay:10.37,2013-01-11 08:33:00,
2013-01-11 03:38:00,42.6,40.7,29.89,SSE,147,9.0,17.3,93,0.02,RA,,0.06,WeatherDisplay:10.37,2013-01-11 08:38:00,
2013-01-11 03:43:00,43.0,41.1,29.88,SE,138,6.9,11.5,93,0.02,RA,,0.06,WeatherDisplay:10.37,2013-01-11 08:43:00,
2013-01-11 03:48:00,43.4,41.5,29.88,SSE,165,7.3,11.5,93,0.02,CLR,,0.06,WeatherDisplay:10.37,2013-01-11 08:48:00,
2013-01-11 03:53:00,43.8,41.9,29.88,SE,145,5.7,11.0,93,0.03,RA,,0.07,WeatherDisplay:10.37,2013-01-11 08:53:00,
2013-01-11 03:58:00,44.1,42.5,29.87,SSE,158,7.7,11.5,94,0.05,RA,,0.09,WeatherDisplay:10.37,2013-01-11 08:58:00,
2013-01-11 04:03:00,44.3,42.7,29.87,SE,138,7.0,12.7,94,0.06,RA,,0.10,WeatherDisplay:10.37,2013-01-11 09:03:00,
2013-01-11 04:08:00,44.6,43.0,29.86,SE,134,10.4,18.4,94,0.07,RA,,0.11,WeatherDisplay:10.37,2013-01-11 09:08:00,
2013-01-11 04:13:00,45.2,43.6,29.86,South,184,9.0,16.1,94,0.08,RA,,0.13,WeatherDisplay:10.37,2013-01-11 09:13:00,
2013-01-11 04:18:00,45.2,43.6,29.85,SE,141,7.3,14.0,94,0.10,RA,,0.15,WeatherDisplay:10.37,2013-01-11 09:18:00,
2013-01-11 04:23:00,45.4,43.8,29.84,SSE,155,8.5,12.7,94,0.13,RA,,0.17,WeatherDisplay:10.37,2013-01-11 09:23:00,
2013-01-11 04:28:00,45.4,43.8,29.84,SE,140,8.8,15.0,94,0.12,RA,,0.18,WeatherDisplay:10.37,2013-01-11 09:28:00,
2013-01-11 04:33:00,45.3,43.7,29.83,SE,137,13.3,15.0,94,0.18,RA,,0.23,WeatherDisplay:10.37,2013-01-11 09:33:00,
2013-01-11 04:38:00,45.6,44.0,29.83,South,175,12.0,15.0,94,0.19,RA,,0.25,WeatherDisplay:10.37,2013-01-11 09:38:00,
2013-01-11 04:43:00,46.1,44.5,29.83,SE,140,12.9,19.6,94,0.21,RA,,0.27,WeatherDisplay:10.37,2013-01-11 09:43:00,
2013-01-11 04:48:00,46.5,45.1,29.83,SE,143,12.7,15.0,95,0.22,RA,,0.28,WeatherDisplay:10.37,2013-01-11 09:48:00,
2013-01-11 04:53:00,46.8,45.4,29.83,SSE,150,14.7,21.9,95,0.22,RA,,0.29,WeatherDisplay:10.37,2013-01-11 09:53:00,
2013-01-11 04:58:00,47.1,45.7,29.83,SSE,159,13.2,18.4,95,0.20,RA,,0.29,WeatherDisplay:10.37,2013-01-11 09:58:00,
2013-01-11 05:03:00,47.6,46.2,29.83,South,170,12.2,17.3,95,0.19,CLR,,0.30,WeatherDisplay:10.37,2013-01-11 10:03:00,
2013-01-11 05:08:00,47.7,46.3,29.83,SSE,165,11.7,16.1,95,0.19,RA,,0.30,WeatherDisplay:10.37,2013-01-11 10:08:00,
2013-01-11 05:13:00,48.2,46.8,29.83,SSE,161,7.1,11.5,95,0.18,RA,,0.30,WeatherDisplay:10.37,2013-01-11 10:13:00,
2013-01-11 05:18:00,48.5,47.1,29.83,SSE,152,8.4,12.7,95,0.16,CLR,,0.30,WeatherDisplay:10.37,2013-01-11 10:18:00,
2013-01-11 05:23:00,48.5,47.1,29.82,SSE,162,9.4,13.8,95,0.13,CLR,,0.30,WeatherDisplay:10.37,2013-01-11 10:23:00,
2013-01-11 05:28:00,48.4,47.0,29.82,SSE,157,9.1,15.0,95,0.13,CLR,,0.30,WeatherDisplay:10.37,2013-01-11 10:28:00,
2013-01-11 05:33:00,48.5,46.9,29.82,South,178,8.7,15.0,94,0.08,RA,,0.31,WeatherDisplay:10.37,2013-01-11 10:33:00,
2013-01-11 05:38:00,48.8,47.4,29.80,SSE,153,10.0,13.0,95,0.06,RA,,0.31,WeatherDisplay:10.37,2013-01-11 10:38:00,
2013-01-11 05:43:00,49.2,47.8,29.79,SSE,167,8.0,18.4,95,0.04,CLR,,0.31,WeatherDisplay:10.37,2013-01-11 10:43:00,
2013-01-11 05:48:00,49.3,47.9,29.79,South,176,9.5,17.3,95,0.03,CLR,,0.31,WeatherDisplay:10.37,2013-01-11 10:48:00,
2013-01-11 05:53:00,49.6,48.2,29.79,SSE,157,9.1,17.3,95,0.02,CLR,,0.31,WeatherDisplay:10.37,2013-01-11 10:53:00,
2013-01-11 05:58:00,49.6,48.2,29.77,SE,145,11.2,18.4,95,0.02,CLR,,0.31,WeatherDisplay:10.37,2013-01-11 10:58:00,
2013-01-11 06:04:00,50.0,48.6,29.77,SE,145,11.4,16.1,95,0.01,CLR,,0.31,WeatherDisplay:10.37,2013-01-11 11:04:00,
2013-01-11 06:09:00,50.1,48.7,29.77,SSE,150,14.9,24.2,95,0.01,CLR,,0.31,WeatherDisplay:10.37,2013-01-11 11:09:00,
2013-01-11 06:14:00,50.2,48.8,29.77,SE,134,10.1,12.7,95,0.01,CLR,,0.31,WeatherDisplay:10.37,2013-01-11 11:14:00,
2013-01-11 06:19:00,50.3,48.9,29.76,SSE,155,12.2,17.3,95,0.01,CLR,,0.31,WeatherDisplay:10.37,2013-01-11 11:19:00,
2013-01-11 06:24:00,50.5,49.1,29.76,SSE,147,11.9,19.6,95,0.01,CLR,,0.31,WeatherDisplay:10.37,2013-01-11 11:24:00,
2013-01-11 06:29:00,50.8,49.4,29.75,SSE,154,11.0,17.3,95,0.01,CLR,,0.31,WeatherDisplay:10.37,2013-01-11 11:29:00,
2013-01-11 06:34:00,50.9,49.5,29.74,SSE,151,10.6,15.0,95,0.00,CLR,,0.31,WeatherDisplay:10.37,2013-01-11 11:34:00,
2013-01-11 06:39:00,50.9,49.5,29.70,SE,133,6.3,19.0,95,0.01,RA,,0.32,WeatherDisplay:10.37,2013-01-11 11:39:00,
2013-01-11 06:44:00,51.0,49.6,29.71,SE,129,12.0,18.4,95,0.01,RA,,0.32,WeatherDisplay:10.37,2013-01-11 11:44:00,
2013-01-11 06:49:00,51.2,49.8,29.75,SSE,164,7.4,17.3,95,0.01,CLR,,0.32,WeatherDisplay:10.37,2013-01-11 11:49:00,
2013-01-11 06:54:00,51.3,49.9,29.75,SSE,150,7.1,11.5,95,0.01,CLR,,0.32,WeatherDisplay:10.37,2013-01-11 11:54:00,
2013-01-11 06:59:00,51.4,50.0,29.76,South,181,6.8,11.5,95,0.01,CLR,,0.32,WeatherDisplay:10.37,2013-01-11 11:59:00,
2013-01-11 07:04:00,51.4,50.0,29.76,SSE,158,5.4,17.0,95,0.01,CLR,,0.32,WeatherDisplay:10.37,2013-01-11 12:04:00,
2013-01-11 07:09:00,51.6,50.2,29.75,SSE,159,12.0,15.0,95,0.01,CLR,,0.32,WeatherDisplay:10.37,2013-01-11 12:09:00,
2013-01-11 07:14:00,51.6,50.2,29.75,SSE,157,9.1,12.7,95,0.01,CLR,,0.32,WeatherDisplay:10.37,2013-01-11 12:14:00,
2013-01-11 07:19:00,51.6,50.2,29.75,SSE,159,10.7,13.8,95,0.01,CLR,,0.32,WeatherDisplay:10.37,2013-01-11 12:19:00,
2013-01-11 07:25:00,51.5,50.1,29.75,SSE,161,9.0,17.0,95,0.00,CLR,CLR,0.32,WeatherDisplay:10.37,2013-01-11 12:25:00,
2013-01-11 07:30:00,51.6,50.2,29.75,SSE,165,10.0,17.0,95,0.00,CLR,CLR,0.32,WeatherDisplay:10.37,2013-01-11 12:30:00,
2013-01-11 07:35:00,51.5,49.8,29.76,South,176,5.3,10.4,94,0.01,CLR,,0.32,WeatherDisplay:10.37,2013-01-11 12:35:00,
2013-01-11 07:40:00,51.4,49.7,29.76,SSE,154,6.6,13.8,94,0.00,CLR,,0.32,WeatherDisplay:10.37,2013-01-11 12:40:00,
2013-01-11 07:45:00,51.3,49.6,29.76,SSE,168,3.8,5.8,94,0.00,CLR,,0.32,WeatherDisplay:10.37,2013-01-11 12:45:00,
2013-01-11 07:50:00,51.3,49.6,29.77,South,173,8.0,15.0,94,0.00,CLR,CLR,0.32,WeatherDisplay:10.37,2013-01-11 12:50:00,
2013-01-11 07:55:00,51.2,49.5,29.76,South,175,8.5,15.0,94,0.00,CLR,,0.32,WeatherDisplay:10.37,2013-01-11 12:55:00,
2013-01-11 08:00:00,51.2,49.5,29.77,SSE,168,5.0,13.0,94,0.00,CLR,CLR,0.32,WeatherDisplay:10.37,2013-01-11 13:00:00,
2013-01-11 08:05:00,51.4,49.7,29.77,SSE,163,6.5,13.0,94,0.00,CLR,,0.32,WeatherDisplay:10.37,2013-01-11 13:05:00,
2013-01-11 08:10:00,51.6,49.9,29.78,South,169,1.0,16.0,94,0.00,CLR,CLR,0.32,WeatherDisplay:10.37,2013-01-11 13:10:00,
2013-01-11 08:15:00,51.8,50.1,29.79,South,173,5.6,12.7,94,0.00,CLR,,0.32,WeatherDisplay:10.37,2013-01-11 13:15:00,
2013-01-11 08:20:00,51.9,50.5,29.79,SSW,192,6.0,12.0,95,0.00,CLR,CLR,0.32,WeatherDisplay:10.37,2013-01-11 13:20:00,
2013-01-11 08:25:00,51.9,50.5,29.79,South,175,0.9,6.9,95,0.00,CLR,,0.32,WeatherDisplay:10.37,2013-01-11 13:25:00,
2013-01-11 08:30:00,52.0,50.6,29.79,South,177,2.0,12.0,95,0.00,CLR,CLR,0.32,WeatherDisplay:10.37,2013-01-11 13:30:00,
2013-01-11 08:35:00,52.0,50.3,29.79,SW,215,4.4,6.9,94,0.00,CLR,,0.32,WeatherDisplay:10.37,2013-01-11 13:35:00,
2013-01-11 08:40:00,52.0,50.3,29.79,SSW,203,1.7,6.9,94,0.00,CLR,,0.32,WeatherDisplay:10.37,2013-01-11 13:40:00,
2013-01-11 08:45:00,52.0,50.4,29.80,South,183,0.0,10.0,94,0.00,CLR,CLR,0.32,WeatherDisplay:10.37,2013-01-11 13:45:00,
2013-01-11 08:50:00,52.1,50.4,29.80,SSW,205,0.0,4.6,94,0.00,CLR,,0.32,WeatherDisplay:10.37,2013-01-11 13:50:00,
2013-01-11 08:55:00,52.2,50.8,29.80,SSW,196,1.0,12.0,95,0.00,CLR,CLR,0.32,WeatherDisplay:10.37,2013-01-11 13:55:00,
2013-01-11 09:00:00,52.3,50.9,29.80,SSW,199,3.0,9.0,95,0.00,CLR,CLR,0.32,WeatherDisplay:10.37,2013-01-11 14:00:00,
2013-01-11 09:05:00,52.3,50.9,29.80,SSW,198,2.3,11.5,95,0.00,CLR,,0.32,WeatherDisplay:10.37,2013-01-11 14:05:00,
2013-01-11 09:10:00,52.5,51.1,29.79,SSW,192,7.0,10.0,95,0.00,CLR,,0.32,WeatherDisplay:10.37,2013-01-11 14:10:00,
2013-01-11 09:15:00,52.6,51.2,29.79,SSW,194,2.0,12.0,95,0.00,CLR,CLR,0.32,WeatherDisplay:10.37,2013-01-11 14:15:00,
2013-01-11 09:20:00,52.7,51.3,29.79,SW,222,3.1,13.8,95,0.00,CLR,,0.32,WeatherDisplay:10.37,2013-01-11 14:20:00,
2013-01-11 09:25:00,52.8,51.1,29.79,SSW,206,2.0,7.0,94,0.00,CLR,CLR,0.32,WeatherDisplay:10.37,2013-01-11 14:25:00,
2013-01-11 09:30:00,53.1,51.7,29.80,South,177,2.6,9.2,95,0.00,CLR,,0.32,WeatherDisplay:10.37,2013-01-11 14:30:00,
2013-01-11 09:35:00,53.2,51.5,29.80,South,187,6.0,12.0,94,0.00,CLR,CLR,0.32,WeatherDisplay:10.37,2013-01-11 14:35:00,
2013-01-11 09:40:00,53.3,51.6,29.80,SSW,211,6.8,12.7,94,0.00,CLR,,0.32,WeatherDisplay:10.37,2013-01-11 14:40:00,
2013-01-11 09:45:00,53.3,51.6,29.80,SSW,203,5.0,12.0,94,0.00,CLR,CLR,0.32,WeatherDisplay:10.37,2013-01-11 14:45:00,
2013-01-11 09:50:00,53.3,51.6,29.80,SW,215,5.0,10.4,94,0.00,CLR,,0.32,WeatherDisplay:10.37,2013-01-11 14:50:00,
2013-01-11 09:55:00,53.3,51.6,29.79,SW,220,3.0,13.0,94,0.00,CLR,CLR,0.32,WeatherDisplay:10.37,2013-01-11 14:55:00,
2013-01-11 10:00:00,53.3,51.6,29.79,SW,215,5.2,12.7,94,0.00,CLR,,0.32,WeatherDisplay:10.37,2013-01-11 15:00:00,
2013-01-11 10:05:00,53.3,51.6,29.79,SSW,207,3.0,7.0,94,0.00,CLR,CLR,0.32,WeatherDisplay:10.37,2013-01-11 15:05:00,
2013-01-11 10:10:00,53.3,51.6,29.79,SW,233,4.4,9.2,94,0.00,CLR,,0.32,WeatherDisplay:10.37,2013-01-11 15:10:00,
2013-01-11 10:15:00,53.3,51.6,29.79,SSW,207,5.0,10.0,94,0.00,CLR,CLR,0.32,WeatherDisplay:10.37,2013-01-11 15:15:00,
2013-01-11 10:20:00,53.3,51.6,29.79,SSW,203,3.5,11.5,94,0.00,CLR,,0.32,WeatherDisplay:10.37,2013-01-11 15:20:00,
2013-01-11 10:25:00,53.3,51.6,29.80,SSW,209,3.0,8.0,94,0.00,CLR,CLR,0.32,WeatherDisplay:10.37,2013-01-11 15:25:00,
2013-01-11 10:30:00,53.3,51.6,29.80,SSW,201,6.2,11.0,94,0.00,CLR,,0.32,WeatherDisplay:10.37,2013-01-11 15:30:00,
2013-01-11 10:35:00,53.2,51.6,29.81,SW,217,2.0,10.0,94,0.00,CLR,CLR,0.32,WeatherDisplay:10.37,2013-01-11 15:35:00,
2013-01-11 10:40:00,53.3,51.6,29.81,SSW,203,0.2,5.8,94,0.00,CLR,,0.32,WeatherDisplay:10.37,2013-01-11 15:40:00,
2013-01-11 10:45:00,53.3,51.6,29.81,SSW,208,2.0,9.0,94,0.00,CLR,CLR,0.32,WeatherDisplay:10.37,2013-01-11 15:45:00,
2013-01-11 10:50:00,53.3,51.3,29.81,SSW,209,1.3,4.6,93,0.00,CLR,,0.32,WeatherDisplay:10.37,2013-01-11 15:50:00,
2013-01-11 10:55:00,53.6,51.9,29.81,SW,235,4.7,8.1,94,0.00,CLR,,0.32,WeatherDisplay:10.37,2013-01-11 15:55:00,
2013-01-11 11:00:00,53.9,51.9,29.81,SSW,207,4.1,9.0,93,0.00,CLR,,0.32,WeatherDisplay:10.37,2013-01-11 16:00:00,
2013-01-11 11:05:00,54.0,51.7,29.81,SW,225,8.6,12.7,92,0.00,CLR,,0.32,WeatherDisplay:10.37,2013-01-11 16:05:00,
2013-01-11 11:10:00,54.1,51.5,29.81,SW,232,7.0,15.0,91,0.00,CLR,,0.32,WeatherDisplay:10.37,2013-01-11 16:10:00,
2013-01-11 11:15:00,54.2,51.3,29.81,SW,232,6.0,18.0,90,0.00,CLR,CLR,0.32,WeatherDisplay:10.37,2013-01-11 16:15:00,
2013-01-11 11:20:00,54.2,51.0,29.81,SW,236,5.2,12.7,89,0.00,CLR,,0.32,WeatherDisplay:10.37,2013-01-11 16:20:00,
2013-01-11 11:25:00,54.2,51.1,29.81,SW,230,3.0,12.0,89,0.00,CLR,CLR,0.32,WeatherDisplay:10.37,2013-01-11 16:25:00,
2013-01-11 11:30:00,54.2,51.3,29.81,SW,232,1.4,9.2,90,0.00,CLR,,0.32,WeatherDisplay:10.37,2013-01-11 16:30:00,
2013-01-11 11:35:00,54.2,51.3,29.81,SW,229,3.8,10.4,90,0.00,CLR,,0.32,WeatherDisplay:10.37,2013-01-11 16:35:00,
2013-01-11 11:40:00,54.1,51.2,29.81,SW,228,3.6,7.0,90,0.00,CLR,,0.32,WeatherDisplay:10.37,2013-01-11 16:40:00,
2013-01-11 11:45:00,54.1,50.9,29.81,SW,236,5.0,10.0,89,0.00,CLR,CLR,0.32,WeatherDisplay:10.37,2013-01-11 16:45:00,
2013-01-11 11:50:00,54.0,50.8,29.81,WSW,238,2.9,9.2,89,0.00,CLR,,0.32,WeatherDisplay:10.37,2013-01-11 16:50:00,
2013-01-11 11:55:00,53.8,50.6,29.81,SW,230,7.0,14.0,89,0.00,CLR,CLR,0.32,WeatherDisplay:10.37,2013-01-11 16:55:00,
2013-01-11 12:00:00,53.6,50.1,29.81,SSW,194,7.6,11.5,88,0.00,CLR,,0.32,WeatherDisplay:10.37,2013-01-11 17:00:00,
2013-01-11 12:05:00,53.4,49.6,29.81,SW,228,5.8,9.2,87,0.00,CLR,,0.32,WeatherDisplay:10.37,2013-01-11 17:05:00,
2013-01-11 12:10:00,53.2,49.4,29.81,SW,228,6.5,13.8,87,0.00,CLR,,0.32,WeatherDisplay:10.37,2013-01-11 17:10:00,
2013-01-11 12:15:00,53.1,49.3,29.81,SW,234,8.0,20.0,87,0.00,CLR,CLR,0.32,WeatherDisplay:10.37,2013-01-11 17:15:00,
2013-01-11 12:20:00,52.9,49.1,29.81,SW,234,5.0,17.0,87,0.00,CLR,CLR,0.32,WeatherDisplay:10.37,2013-01-11 17:20:00,
2013-01-11 12:25:00,52.8,49.0,29.80,SW,226,5.8,18.4,87,0.00,CLR,,0.32,WeatherDisplay:10.37,2013-01-11 17:25:00,
2013-01-11 12:30:00,52.6,48.9,29.80,SW,228,7.0,21.0,87,0.00,CLR,CLR,0.32,WeatherDisplay:10.37,2013-01-11 17:30:00,
2013-01-11 12:35:00,52.4,48.6,29.80,SSW,207,6.1,10.4,87,0.00,CLR,,0.32,WeatherDisplay:10.37,2013-01-11 17:35:00,
2013-01-11 12:40:00,52.4,48.6,29.80,SW,236,5.0,14.0,87,0.00,CLR,CLR,0.32,WeatherDisplay:10.37,2013-01-11 17:40:00,
2013-01-11 12:45:00,52.3,48.9,29.80,SW,232,6.0,13.8,88,0.00,CLR,,0.32,WeatherDisplay:10.37,2013-01-11 17:45:00,
2013-01-11 12:50:00,52.1,48.7,29.80,SW,216,7.3,11.5,88,0.00,CLR,,0.32,WeatherDisplay:10.37,2013-01-11 17:50:00,
2013-01-11 12:55:00,51.8,48.4,29.80,WSW,240,6.4,10.4,88,0.00,CLR,,0.32,WeatherDisplay:10.37,2013-01-11 17:55:00,
2013-01-11 13:00:00,51.5,48.1,29.80,WNW,297,5.2,12.7,88,0.00,CLR,,0.32,WeatherDisplay:10.37,2013-01-11 18:00:00,
2013-01-11 13:05:00,51.4,48.3,29.80,WSW,245,4.0,10.4,89,0.00,CLR,,0.32,WeatherDisplay:10.37,2013-01-11 18:05:00,
2013-01-11 13:10:00,51.5,48.4,29.81,WSW,240,4.6,8.1,89,0.00,CLR,,0.32,WeatherDisplay:10.37,2013-01-11 18:10:00,
2013-01-11 13:15:00,51.5,48.4,29.80,WSW,243,4.3,5.8,89,0.00,CLR,,0.32,WeatherDisplay:10.37,2013-01-11 18:15:00,
2013-01-11 13:20:00,51.5,48.1,29.81,WSW,242,4.3,11.5,88,0.00,CLR,,0.32,WeatherDisplay:10.37,2013-01-11 18:20:00,
2013-01-11 13:25:00,51.5,48.1,29.80,WSW,254,6.3,11.5,88,0.00,CLR,,0.32,WeatherDisplay:10.37,2013-01-11 18:25:00,
2013-01-11 13:30:00,51.9,48.4,29.80,WSW,241,5.0,14.0,88,0.00,CLR,CLR,0.32,WeatherDisplay:10.37,2013-01-11 18:30:00,
2013-01-11 13:35:00,52.7,48.9,29.80,SW,228,3.0,6.9,87,0.00,CLR,,0.32,WeatherDisplay:10.37,2013-01-11 18:35:00,
2013-01-11 13:40:00,53.3,48.9,29.80,SW,232,6.0,12.0,85,0.00,CLR,CLR,0.32,WeatherDisplay:10.37,2013-01-11 18:40:00,
2013-01-11 13:45:00,53.9,49.2,29.80,WSW,246,0.3,2.3,84,0.00,CLR,,0.32,WeatherDisplay:10.37,2013-01-11 18:45:00,
2013-01-11 13:50:00,53.9,48.5,29.79,WSW,240,7.0,13.0,82,0.00,CLR,CLR,0.32,WeatherDisplay:10.37,2013-01-11 18:50:00,
2013-01-11 13:55:00,53.8,49.1,29.80,WSW,258,0.0,0.0,84,0.00,CLR,,0.32,WeatherDisplay:10.37,2013-01-11 18:55:00,
2013-01-11 14:00:00,53.7,48.7,29.80,West,259,4.1,11.5,83,0.00,CLR,,0.32,WeatherDisplay:10.37,2013-01-11 19:00:00,
2013-01-11 14:05:00,53.6,48.6,29.81,SW,227,1.5,5.8,83,0.00,CLR,,0.32,WeatherDisplay:10.37,2013-01-11 19:05:00,
2013-01-11 14:10:00,53.5,48.8,29.81,WSW,238,4.1,9.2,84,0.00,CLR,,0.32,WeatherDisplay:10.37,2013-01-11 19:10:00,
2013-01-11 14:15:00,53.6,48.9,29.81,SW,216,3.8,10.4,84,0.00,CLR,,0.32,WeatherDisplay:10.37,2013-01-11 19:15:00,
2013-01-11 14:20:00,53.6,48.9,29.81,SW,236,3.3,6.9,84,0.00,CLR,,0.32,WeatherDisplay:10.37,2013-01-11 19:20:00,
2013-01-11 14:25:00,53.6,48.9,29.81,West,263,3.0,10.4,84,0.00,CLR,,0.32,WeatherDisplay:10.37,2013-01-11 19:25:00,
2013-01-11 14:30:00,53.6,48.6,29.81,WSW,244,1.0,12.0,83,0.00,CLR,CLR,0.32,WeatherDisplay:10.37,2013-01-11 19:30:00,
2013-01-11 14:35:00,53.5,48.5,29.81,WSW,238,2.6,6.9,83,0.00,CLR,,0.32,WeatherDisplay:10.37,2013-01-11 19:35:00,
2013-01-11 14:40:00,53.3,48.6,29.81,WSW,240,1.0,12.0,84,0.00,CLR,CLR,0.32,WeatherDisplay:10.37,2013-01-11 19:40:00,
2013-01-11 14:45:00,53.2,48.5,29.82,WSW,244,2.2,5.8,84,0.00,CLR,,0.32,WeatherDisplay:10.37,2013-01-11 19:45:00,
2013-01-11 14:50:00,53.1,48.4,29.81,SW,231,3.0,12.0,84,0.00,CLR,CLR,0.32,WeatherDisplay:10.37,2013-01-11 19:50:00,
2013-01-11 14:55:00,53.0,48.6,29.82,SW,236,0.9,5.8,85,0.00,CLR,,0.32,WeatherDisplay:10.37,2013-01-11 19:55:00,
2013-01-11 15:00:00,53.0,48.6,29.82,WSW,248,0.3,1.1,85,0.00,CLR,,0.32,WeatherDisplay:10.37,2013-01-11 20:00:00,
2013-01-11 15:05:00,53.0,48.6,29.81,South,180,0.0,0.0,85,0.00,CLR,,0.32,WeatherDisplay:10.37,2013-01-11 20:05:00,
2013-01-11 15:10:00,53.0,48.9,29.81,SSW,202,0.6,5.8,86,0.00,CLR,,0.32,WeatherDisplay:10.37,2013-01-11 20:10:00,
2013-01-11 15:15:00,52.9,48.8,29.81,SSW,199,2.7,7.0,86,0.00,CLR,,0.32,WeatherDisplay:10.37,2013-01-11 20:15:00,
2013-01-11 15:20:00,53.1,48.7,29.81,SW,232,5.0,12.0,85,0.00,CLR,CLR,0.32,WeatherDisplay:10.37,2013-01-11 20:20:00,
2013-01-11 15:25:00,53.3,48.3,29.82,SW,228,5.2,8.1,83,0.00,CLR,,0.32,WeatherDisplay:10.37,2013-01-11 20:25:00,
2013-01-11 15:30:00,53.6,48.6,29.81,SW,229,2.0,5.8,83,0.00,CLR,,0.32,WeatherDisplay:10.37,2013-01-11 20:30:00,
2013-01-11 15:35:00,54.1,48.7,29.82,SW,228,4.6,10.4,82,0.00,CLR,,0.32,WeatherDisplay:10.37,2013-01-11 20:35:00,
2013-01-11 15:40:00,54.3,48.6,29.82,SW,224,5.0,14.0,81,0.00,CLR,CLR,0.32,WeatherDisplay:10.37,2013-01-11 20:40:00,
2013-01-11 15:45:00,54.1,48.1,29.82,SW,222,4.4,9.2,80,0.00,CLR,,0.32,WeatherDisplay:10.37,2013-01-11 20:45:00,
2013-01-11 15:50:00,54.1,48.4,29.82,SW,222,2.0,9.0,81,0.00,CLR,CLR,0.32,WeatherDisplay:10.37,2013-01-11 20:50:00,
2013-01-11 15:55:00,54.0,48.0,29.82,SW,221,3.7,11.5,80,0.00,CLR,,0.32,WeatherDisplay:10.37,2013-01-11 20:55:00,
2013-01-11 16:00:00,53.8,48.1,29.82,SW,229,5.3,11.5,81,0.00,CLR,,0.32,WeatherDisplay:10.37,2013-01-11 21:00:00,
2013-01-11 16:05:00,53.6,47.9,29.83,SW,234,4.1,11.5,81,0.00,CLR,,0.32,WeatherDisplay:10.37,2013-01-11 21:05:00,
2013-01-11 16:10:00,53.4,47.7,29.83,SW,234,4.9,9.2,81,0.00,CLR,,0.32,WeatherDisplay:10.37,2013-01-11 21:10:00,
2013-01-11 16:15:00,53.2,47.8,29.83,WSW,244,0.7,3.5,82,0.00,CLR,,0.32,WeatherDisplay:10.37,2013-01-11 21:15:00,
2013-01-11 16:20:00,52.9,47.6,29.83,WSW,242,2.0,10.0,82,0.00,CLR,CLR,0.32,WeatherDisplay:10.37,2013-01-11 21:20:00,
2013-01-11 16:25:00,52.7,47.7,29.82,WSW,237,1.9,5.8,83,0.00,CLR,,0.32,WeatherDisplay:10.37,2013-01-11 21:25:00,
2013-01-11 16:30:00,52.6,47.6,29.82,SW,236,0.0,6.0,83,0.00,CLR,CLR,0.32,WeatherDisplay:10.37,2013-01-11 21:30:00,
2013-01-11 16:35:00,52.4,47.7,29.82,SW,236,0.5,3.5,84,0.00,CLR,,0.32,WeatherDisplay:10.37,2013-01-11 21:35:00,
2013-01-11 16:40:00,52.4,47.7,29.83,WSW,237,0.0,2.0,84,0.00,CLR,CLR,0.32,WeatherDisplay:10.37,2013-01-11 21:40:00,
2013-01-11 16:45:00,52.3,47.6,29.83,WSW,238,0.5,3.5,84,0.00,CLR,,0.32,WeatherDisplay:10.37,2013-01-11 21:45:00,
2013-01-11 16:50:00,52.3,47.6,29.84,WSW,237,0.0,5.0,84,0.00,CLR,CLR,0.32,WeatherDisplay:10.37,2013-01-11 21:50:00,
2013-01-11 16:55:00,52.2,47.5,29.83,WSW,241,0.0,0.0,84,0.00,CLR,,0.32,WeatherDisplay:10.37,2013-01-11 21:55:00,
2013-01-11 17:00:00,52.1,47.7,29.82,South,176,0.5,3.5,85,0.00,CLR,,0.32,WeatherDisplay:10.37,2013-01-11 22:00:00,
2013-01-11 17:05:00,52.0,47.6,29.83,South,184,0.0,0.0,85,0.00,CLR,,0.32,WeatherDisplay:10.37,2013-01-11 22:05:00,
2013-01-11 17:10:00,52.0,47.6,29.83,South,184,0.0,0.0,85,0.00,CLR,,0.32,WeatherDisplay:10.37,2013-01-11 22:10:00,
2013-01-11 17:15:00,51.8,47.4,29.81,South,184,0.0,0.0,85,0.00,CLR,,0.32,WeatherDisplay:10.37,2013-01-11 22:15:00,
2013-01-11 17:20:00,51.7,47.3,29.80,South,178,0.0,5.0,85,0.00,CLR,CLR,0.32,WeatherDisplay:10.37,2013-01-11 22:20:00,
2013-01-11 17:25:00,51.5,47.5,29.82,South,173,0.0,0.0,86,0.00,CLR,,0.32,WeatherDisplay:10.37,2013-01-11 22:25:00,
2013-01-11 17:30:00,51.4,47.4,29.83,South,173,0.0,1.0,86,0.00,CLR,CLR,0.32,WeatherDisplay:10.37,2013-01-11 22:30:00,
2013-01-11 17:35:00,51.2,47.2,29.82,South,173,0.0,0.0,86,0.00,CLR,,0.32,WeatherDisplay:10.37,2013-01-11 22:35:00,
2013-01-11 17:40:00,51.0,47.0,29.82,South,173,0.0,3.0,86,0.00,CLR,CLR,0.32,WeatherDisplay:10.37,2013-01-11 22:40:00,
2013-01-11 17:45:00,51.0,47.0,29.83,South,174,3.1,5.8,86,0.00,CLR,,0.32,WeatherDisplay:10.37,2013-01-11 22:45:00,
2013-01-11 17:50:00,50.9,46.9,29.82,South,174,2.0,5.0,86,0.00,CLR,CLR,0.32,WeatherDisplay:10.37,2013-01-11 22:50:00,
2013-01-11 17:55:00,50.5,46.5,29.82,South,169,1.3,6.0,86,0.00,CLR,,0.32,WeatherDisplay:10.37,2013-01-11 22:55:00,
2013-01-11 18:00:00,50.4,46.4,29.82,South,169,1.3,3.5,86,0.00,CLR,,0.32,WeatherDisplay:10.37,2013-01-11 23:00:00,
2013-01-11 18:05:00,50.4,46.4,29.81,South,169,3.4,4.6,86,0.00,CLR,,0.32,WeatherDisplay:10.37,2013-01-11 23:05:00,
2013-01-11 18:10:00,50.2,46.2,29.81,South,173,2.9,5.8,86,0.00,CLR,,0.32,WeatherDisplay:10.37,2013-01-11 23:10:00,
2013-01-11 18:15:00,50.2,46.2,29.81,SSE,167,2.9,6.9,86,0.00,CLR,,0.32,WeatherDisplay:10.37,2013-01-11 23:15:00,
2013-01-11 18:20:00,50.3,46.3,29.82,South,170,3.0,8.0,86,0.00,CLR,CLR,0.32,WeatherDisplay:10.37,2013-01-11 23:20:00,
2013-01-11 18:25:00,50.5,46.5,29.81,South,174,4.6,9.2,86,0.00,CLR,,0.32,WeatherDisplay:10.37,2013-01-11 23:25:00,
2013-01-11 18:30:00,50.5,46.5,29.81,SSE,168,5.0,10.0,86,0.00,CLR,CLR,0.32,WeatherDisplay:10.37,2013-01-11 23:30:00,
2013-01-11 18:35:00,50.5,46.5,29.82,South,169,1.0,9.0,86,0.00,CLR,CLR,0.32,WeatherDisplay:10.37,2013-01-11 23:35:00,
2013-01-11 18:40:00,50.5,46.5,29.81,South,174,2.1,4.6,86,0.00,CLR,,0.32,WeatherDisplay:10.37,2013-01-11 23:40:00,
2013-01-11 18:45:00,50.3,46.3,29.81,SSE,167,3.0,8.0,86,0.00,CLR,CLR,0.32,WeatherDisplay:10.37,2013-01-11 23:45:00,
2013-01-11 18:50:00,50.3,46.6,29.81,South,169,4.5,6.9,87,0.00,CLR,,0.32,WeatherDisplay:10.37,2013-01-11 23:50:00,
2013-01-11 18:55:00,50.2,46.5,29.82,SSE,167,2.0,12.0,87,0.00,CLR,CLR,0.32,WeatherDisplay:10.37,2013-01-11 23:55:00,
2013-01-11 19:00:00,50.3,46.6,29.83,South,169,3.7,9.2,87,0.00,CLR,,0.32,WeatherDisplay:10.37,2013-01-12 00:00:00,
2013-01-11 19:05:00,50.5,46.8,29.82,South,172,5.0,13.0,87,0.00,CLR,CLR,0.32,WeatherDisplay:10.37,2013-01-12 00:05:00,
2013-01-11 19:10:00,50.6,46.9,29.82,South,172,3.0,8.0,87,0.00,CLR,CLR,0.32,WeatherDisplay:10.37,2013-01-12 00:10:00,
2013-01-11 19:15:00,50.8,47.1,29.82,SSE,167,4.7,11.5,87,0.00,CLR,,0.32,WeatherDisplay:10.37,2013-01-12 00:15:00,
2013-01-11 19:20:00,51.0,47.2,29.82,South,169,3.0,14.0,87,0.00,CLR,CLR,0.32,WeatherDisplay:10.37,2013-01-12 00:20:00,
2013-01-11 19:25:00,51.1,47.4,29.82,South,174,5.3,10.4,87,0.00,CLR,,0.32,WeatherDisplay:10.37,2013-01-12 00:25:00,
2013-01-11 19:30:00,51.2,47.5,29.82,SSE,164,0.6,5.0,87,0.00,CLR,,0.32,WeatherDisplay:10.37,2013-01-12 00:30:00,
2013-01-11 19:35:00,51.3,47.6,29.82,South,185,4.6,16.1,87,0.00,CLR,,0.32,WeatherDisplay:10.37,2013-01-12 00:35:00,
2013-01-11 19:40:00,51.3,47.6,29.82,South,187,1.3,4.6,87,0.00,CLR,,0.32,WeatherDisplay:10.37,2013-01-12 00:40:00,
2013-01-11 19:45:00,51.4,47.7,29.82,South,185,1.1,4.6,87,0.00,CLR,,0.32,WeatherDisplay:10.37,2013-01-12 00:45:00,
2013-01-11 19:50:00,51.4,47.7,29.82,SSW,196,0.2,4.0,87,0.00,CLR,,0.32,WeatherDisplay:10.37,2013-01-12 00:50:00,
2013-01-11 19:55:00,51.4,47.7,29.81,SSW,196,3.8,8.1,87,0.00,CLR,,0.32,WeatherDisplay:10.37,2013-01-12 00:55:00,
2013-01-11 20:00:00,51.4,47.7,29.81,South,191,3.2,10.4,87,0.00,CLR,,0.32,WeatherDisplay:10.37,2013-01-12 01:00:00,
2013-01-11 20:05:00,51.5,47.8,29.81,South,176,5.1,10.4,87,0.00,CLR,,0.32,WeatherDisplay:10.37,2013-01-12 01:05:00,
2013-01-11 20:10:00,51.5,47.8,29.81,South,171,6.3,9.2,87,0.00,CLR,,0.32,WeatherDisplay:10.37,2013-01-12 01:10:00,
2013-01-11 20:15:00,51.6,47.9,29.81,South,181,4.1,9.2,87,0.00,CLR,,0.32,WeatherDisplay:10.37,2013-01-12 01:15:00,
2013-01-11 20:20:00,51.7,48.0,29.81,South,176,3.0,14.0,87,0.00,CLR,CLR,0.32,WeatherDisplay:10.37,2013-01-12 01:20:00,
2013-01-11 20:25:00,51.8,48.1,29.81,SSE,161,0.0,0.0,87,0.00,CLR,,0.32,WeatherDisplay:10.37,2013-01-12 01:25:00,
2013-01-11 20:30:00,51.8,48.1,29.81,South,176,7.9,13.8,87,0.00,CLR,,0.32,WeatherDisplay:10.37,2013-01-12 01:30:00,
2013-01-11 20:35:00,52.1,48.3,29.80,SSE,161,2.4,6.9,87,0.00,CLR,,0.32,WeatherDisplay:10.37,2013-01-12 01:35:00,
2013-01-11 20:40:00,52.0,48.3,29.80,SSW,202,4.9,11.5,87,0.00,CLR,,0.32,WeatherDisplay:10.37,2013-01-12 01:40:00,
2013-01-11 20:45:00,52.0,48.3,29.81,South,186,1.4,4.6,87,0.00,CLR,,0.32,WeatherDisplay:10.37,2013-01-12 01:45:00,
2013-01-11 20:50:00,52.0,48.3,29.80,SSW,213,4.3,11.5,87,0.00,CLR,,0.32,WeatherDisplay:10.37,2013-01-12 01:50:00,
2013-01-11 20:55:00,52.1,48.3,29.81,SSE,165,5.7,12.7,87,0.00,CLR,,0.32,WeatherDisplay:10.37,2013-01-12 01:55:00,
2013-01-11 21:00:00,52.1,48.3,29.81,South,174,2.9,6.9,87,0.00,CLR,,0.32,WeatherDisplay:10.37,2013-01-12 02:00:00,
2013-01-11 21:05:00,52.1,48.3,29.81,SSW,194,7.0,11.5,87,0.00,CLR,,0.32,WeatherDisplay:10.37,2013-01-12 02:05:00,
2013-01-11 21:10:00,52.1,48.3,29.81,SW,219,2.6,8.1,87,0.00,CLR,,0.32,WeatherDisplay:10.37,2013-01-12 02:10:00,
2013-01-11 21:15:00,52.0,48.3,29.80,SSE,165,3.1,10.0,87,0.00,CLR,,0.32,WeatherDisplay:10.37,2013-01-12 02:15:00,
2013-01-11 21:20:00,52.0,48.3,29.80,South,171,3.3,9.2,87,0.00,CLR,,0.32,WeatherDisplay:10.37,2013-01-12 02:20:00,
2013-01-11 21:25:00,52.1,48.3,29.80,SSW,198,6.1,11.5,87,0.00,CLR,,0.32,WeatherDisplay:10.37,2013-01-12 02:25:00,
2013-01-11 21:30:00,52.2,48.4,29.80,South,169,6.7,11.0,87,0.00,CLR,,0.32,WeatherDisplay:10.37,2013-01-12 02:30:00,
2013-01-11 21:35:00,52.3,48.5,29.80,South,180,5.6,10.4,87,0.00,CLR,,0.32,WeatherDisplay:10.37,2013-01-12 02:35:00,
2013-01-11 21:40:00,52.3,48.2,29.80,South,173,4.2,9.2,86,0.00,CLR,,0.32,WeatherDisplay:10.37,2013-01-12 02:40:00,
2013-01-11 21:45:00,52.2,48.4,29.80,SSW,206,3.4,7.0,87,0.00,CLR,,0.32,WeatherDisplay:10.37,2013-01-12 02:45:00,
2013-01-11 21:50:00,52.3,48.5,29.80,SSW,211,5.0,10.4,87,0.00,CLR,,0.32,WeatherDisplay:10.37,2013-01-12 02:50:00,
2013-01-11 21:55:00,52.3,48.2,29.80,South,189,3.2,4.6,86,0.00,CLR,,0.32,WeatherDisplay:10.37,2013-01-12 02:55:00,
2013-01-11 22:00:00,52.3,48.5,29.80,SW,226,7.4,15.0,87,0.00,CLR,,0.32,WeatherDisplay:10.37,2013-01-12 03:00:00,
2013-01-11 22:05:00,52.3,48.2,29.80,SSW,192,5.4,11.5,86,0.00,CLR,,0.32,WeatherDisplay:10.37,2013-01-12 03:05:00,
2013-01-11 22:10:00,52.3,48.5,29.80,SSW,197,2.7,4.6,87,0.00,CLR,,0.32,WeatherDisplay:10.37,2013-01-12 03:10:00,
2013-01-11 22:15:00,52.1,48.3,29.80,South,189,4.4,8.1,87,0.00,CLR,,0.32,WeatherDisplay:10.37,2013-01-12 03:15:00,
2013-01-11 22:20:00,52.1,48.3,29.80,SSW,202,2.6,5.8,87,0.00,CLR,,0.32,WeatherDisplay:10.37,2013-01-12 03:20:00,
2013-01-11 22:25:00,52.0,48.3,29.80,SSW,198,4.6,10.4,87,0.00,CLR,,0.32,WeatherDisplay:10.37,2013-01-12 03:25:00,
2013-01-11 22:30:00,51.9,48.2,29.81,South,177,5.4,11.5,87,0.00,CLR,,0.32,WeatherDisplay:10.37,2013-01-12 03:30:00,
2013-01-11 22:35:00,51.9,48.2,29.81,SSW,204,3.3,8.1,87,0.00,CLR,,0.32,WeatherDisplay:10.37,2013-01-12 03:35:00,
2013-01-11 22:40:00,51.8,48.1,29.81,SSW,211,3.7,5.8,87,0.00,CLR,,0.32,WeatherDisplay:10.37,2013-01-12 03:40:00,
2013-01-11 22:45:00,51.7,48.3,29.80,SSW,213,3.3,6.9,88,0.00,CLR,,0.32,WeatherDisplay:10.37,2013-01-12 03:45:00,
2013-01-11 22:50:00,51.7,48.3,29.80,South,177,4.3,8.1,88,0.00,CLR,,0.32,WeatherDisplay:10.37,2013-01-12 03:50:00,
2013-01-11 22:55:00,51.7,48.3,29.79,South,190,2.0,5.8,88,0.00,CLR,,0.32,WeatherDisplay:10.37,2013-01-12 03:55:00,
2013-01-11 23:00:00,51.6,48.2,29.79,SSW,202,1.8,7.0,88,0.00,CLR,,0.32,WeatherDisplay:10.37,2013-01-12 04:00:00,
2013-01-11 23:05:00,51.6,48.2,29.79,SSW,193,3.1,9.2,88,0.00,CLR,,0.32,WeatherDisplay:10.37,2013-01-12 04:05:00,
2013-01-11 23:10:00,51.7,48.3,29.80,South,187,4.6,10.4,88,0.00,CLR,,0.32,WeatherDisplay:10.37,2013-01-12 04:10:00,
2013-01-11 23:15:00,51.6,48.2,29.79,SSW,203,0.6,3.5,88,0.00,CLR,,0.32,WeatherDisplay:10.37,2013-01-12 04:15:00,
2013-01-11 23:20:00,51.6,48.2,29.79,SSW,195,5.2,10.4,88,0.00,CLR,,0.32,WeatherDisplay:10.37,2013-01-12 04:20:00,
2013-01-11 23:25:00,51.6,48.2,29.80,South,171,0.4,3.5,88,0.00,CLR,,0.32,WeatherDisplay:10.37,2013-01-12 04:25:00,
2013-01-11 23:30:00,51.5,48.1,29.79,South,172,5.5,9.2,88,0.00,CLR,,0.32,WeatherDisplay:10.37,2013-01-12 04:30:00,
2013-01-11 23:35:00,51.5,48.1,29.79,South,169,5.4,9.2,88,0.00,CLR,,0.32,WeatherDisplay:10.37,2013-01-12 04:35:00,
2013-01-11 23:40:00,51.5,48.1,29.79,South,190,5.7,10.4,88,0.00,CLR,,0.32,WeatherDisplay:10.37,2013-01-12 04:40:00,
2013-01-11 23:45:00,51.5,48.1,29.79,SSE,167,4.2,9.2,88,0.00,CLR,,0.32,WeatherDisplay:10.37,2013-01-12 04:45:00,
2013-01-11 23:50:00,51.4,48.0,29.80,South,173,2.5,5.8,88,0.00,CLR,,0.32,WeatherDisplay:10.37,2013-01-12 04:50:00,
2013-01-11 23:55:00,51.3,47.9,29.79,SSW,202,1.1,5.8,88,0.00,CLR,,0.32,WeatherDisplay:10.37,2013-01-12 04:55:00,